Year,Month,Day,Hour,Minute,Value (Times are PST for temperature in C)
2016,07,24,00,00,16.20
2016,07,24,00,01,16.20
2016,07,24,00,02,16.20
2016,07,24,00,03,16.20
2016,07,24,00,04,16.20
2016,07,24,00,05,16.20
2016,07,24,00,06,16.20
2016,07,24,00,07,16.20
2016,07,24,00,08,16.20
2016,07,24,00,09,16.20
2016,07,24,00,10,16.20
2016,07,24,00,11,16.20
2016,07,24,00,12,16.20
2016,07,24,00,13,16.20
2016,07,24,00,14,16.20
2016,07,24,00,15,16.20
2016,07,24,00,16,16.10
2016,07,24,00,17,16.10
2016,07,24,00,18,16.10
2016,07,24,00,19,16.10
2016,07,24,00,20,16.10
2016,07,24,00,21,16.10
2016,07,24,00,22,16.10
2016,07,24,00,23,16.00
2016,07,24,00,24,16.00
2016,07,24,00,25,16.00
2016,07,24,00,26,15.90
2016,07,24,00,27,15.90
2016,07,24,00,28,15.90
2016,07,24,00,29,15.80
2016,07,24,00,30,15.80
2016,07,24,00,31,15.80
2016,07,24,00,32,15.80
2016,07,24,00,33,15.70
2016,07,24,00,34,15.70
2016,07,24,00,35,15.70
2016,07,24,00,36,15.70
2016,07,24,00,37,15.70
2016,07,24,00,38,15.70
2016,07,24,00,39,15.70
2016,07,24,00,40,15.70
2016,07,24,00,41,15.70
2016,07,24,00,42,15.70
2016,07,24,00,43,15.70
2016,07,24,00,44,15.70
2016,07,24,00,45,15.70
2016,07,24,00,46,15.70
2016,07,24,00,47,15.70
2016,07,24,00,48,15.70
2016,07,24,00,49,15.70
2016,07,24,00,50,15.70
2016,07,24,00,51,15.70
2016,07,24,00,52,15.60
2016,07,24,00,53,15.60
2016,07,24,00,54,15.60
2016,07,24,00,55,15.50
2016,07,24,00,56,15.50
2016,07,24,00,57,15.50
2016,07,24,00,58,15.40
2016,07,24,00,59,15.40
2016,07,24,01,00,15.40
2016,07,24,01,01,15.40
2016,07,24,01,02,15.40
2016,07,24,01,03,15.40
2016,07,24,01,04,15.40
2016,07,24,01,05,15.40
2016,07,24,01,06,15.40
2016,07,24,01,07,15.40
2016,07,24,01,08,15.40
2016,07,24,01,09,15.30
2016,07,24,01,10,15.30
2016,07,24,01,11,15.30
2016,07,24,01,12,15.30
2016,07,24,01,13,15.30
2016,07,24,01,14,15.30
2016,07,24,01,15,15.30
2016,07,24,01,16,15.30
2016,07,24,01,17,15.30
2016,07,24,01,18,15.30
2016,07,24,01,19,15.20
2016,07,24,01,20,15.20
2016,07,24,01,21,15.20
2016,07,24,01,22,15.20
2016,07,24,01,23,15.20
2016,07,24,01,24,15.20
2016,07,24,01,25,15.10
2016,07,24,01,26,15.10
2016,07,24,01,27,15.10
2016,07,24,01,28,15.10
2016,07,24,01,29,15.10
2016,07,24,01,30,15.10
2016,07,24,01,31,15.00
2016,07,24,01,32,15.00
2016,07,24,01,33,15.00
2016,07,24,01,34,15.00
2016,07,24,01,35,15.00
2016,07,24,01,36,15.00
2016,07,24,01,37,15.00
2016,07,24,01,38,15.00
2016,07,24,01,39,15.00
2016,07,24,01,40,15.00
2016,07,24,01,41,15.00
2016,07,24,01,42,15.00
2016,07,24,01,43,15.00
2016,07,24,01,44,15.00
2016,07,24,01,45,15.00
2016,07,24,01,46,15.00
2016,07,24,01,47,15.00
2016,07,24,01,48,15.00
2016,07,24,01,49,15.00
2016,07,24,01,50,15.00
2016,07,24,01,51,14.90
2016,07,24,01,52,14.90
2016,07,24,01,53,14.90
2016,07,24,01,54,14.90
2016,07,24,01,55,14.90
2016,07,24,01,56,14.90
2016,07,24,01,57,14.80
2016,07,24,01,58,14.80
2016,07,24,01,59,14.80
2016,07,24,02,00,14.80
2016,07,24,02,01,14.80
2016,07,24,02,02,14.70
2016,07,24,02,03,14.70
2016,07,24,02,04,14.70
2016,07,24,02,05,14.70
2016,07,24,02,06,14.70
2016,07,24,02,07,14.70
2016,07,24,02,08,14.60
2016,07,24,02,09,14.60
2016,07,24,02,10,14.60
2016,07,24,02,11,14.60
2016,07,24,02,12,14.60
2016,07,24,02,13,14.50
2016,07,24,02,14,14.50
2016,07,24,02,15,14.50
2016,07,24,02,16,14.50
2016,07,24,02,17,14.40
2016,07,24,02,18,14.40
2016,07,24,02,19,14.40
2016,07,24,02,20,14.40
2016,07,24,02,21,14.40
2016,07,24,02,22,14.30
2016,07,24,02,23,14.30
2016,07,24,02,24,14.30
2016,07,24,02,25,14.30
2016,07,24,02,26,14.30
2016,07,24,02,27,14.20
2016,07,24,02,28,14.20
2016,07,24,02,29,14.20
2016,07,24,02,30,14.20
2016,07,24,02,31,14.20
2016,07,24,02,32,14.20
2016,07,24,02,33,14.10
2016,07,24,02,34,14.10
2016,07,24,02,35,14.10
2016,07,24,02,36,14.10
2016,07,24,02,37,14.00
2016,07,24,02,38,14.00
2016,07,24,02,39,14.00
2016,07,24,02,40,13.90
2016,07,24,02,41,13.90
2016,07,24,02,42,13.90
2016,07,24,02,43,13.90
2016,07,24,02,44,13.90
2016,07,24,02,45,13.90
2016,07,24,02,46,13.80
2016,07,24,02,47,13.80
2016,07,24,02,48,13.80
2016,07,24,02,49,13.80
2016,07,24,02,50,13.80
2016,07,24,02,51,13.80
2016,07,24,02,52,13.80
2016,07,24,02,53,13.80
2016,07,24,02,54,13.80
2016,07,24,02,55,13.80
2016,07,24,02,56,13.80
2016,07,24,02,57,13.80
2016,07,24,02,58,13.80
2016,07,24,02,59,13.70
2016,07,24,03,00,13.70
2016,07,24,03,01,13.70
2016,07,24,03,02,13.70
2016,07,24,03,03,13.60
2016,07,24,03,04,13.60
2016,07,24,03,05,13.60
2016,07,24,03,06,13.60
2016,07,24,03,07,13.60
2016,07,24,03,08,13.60
2016,07,24,03,09,13.50
2016,07,24,03,10,13.50
2016,07,24,03,11,13.50
2016,07,24,03,12,13.50
2016,07,24,03,13,13.50
2016,07,24,03,14,13.50
2016,07,24,03,15,13.50
2016,07,24,03,16,13.40
2016,07,24,03,17,13.40
2016,07,24,03,18,13.40
2016,07,24,03,19,13.40
2016,07,24,03,20,13.40
2016,07,24,03,21,13.50
2016,07,24,03,22,13.50
2016,07,24,03,23,13.50
2016,07,24,03,24,13.50
2016,07,24,03,25,13.50
2016,07,24,03,26,13.50
2016,07,24,03,27,13.40
2016,07,24,03,28,13.40
2016,07,24,03,29,13.40
2016,07,24,03,30,13.40
2016,07,24,03,31,13.40
2016,07,24,03,32,13.40
2016,07,24,03,33,13.40
2016,07,24,03,34,13.50
2016,07,24,03,35,13.50
2016,07,24,03,36,13.50
2016,07,24,03,37,13.50
2016,07,24,03,38,13.50
2016,07,24,03,39,13.50
2016,07,24,03,40,13.60
2016,07,24,03,41,13.60
2016,07,24,03,42,13.60
2016,07,24,03,43,13.60
2016,07,24,03,44,13.60
2016,07,24,03,45,13.60
2016,07,24,03,46,13.50
2016,07,24,03,47,13.50
2016,07,24,03,48,13.50
2016,07,24,03,49,13.50
2016,07,24,03,50,13.50
2016,07,24,03,51,13.50
2016,07,24,03,52,13.50
2016,07,24,03,53,13.50
2016,07,24,03,54,13.50
2016,07,24,03,55,13.50
2016,07,24,03,56,13.50
2016,07,24,03,57,13.50
2016,07,24,03,58,13.50
2016,07,24,03,59,13.50
2016,07,24,04,00,13.40
2016,07,24,04,01,13.40
2016,07,24,04,02,13.40
2016,07,24,04,03,13.40
2016,07,24,04,04,13.40
2016,07,24,04,05,13.40
2016,07,24,04,06,13.30
2016,07,24,04,07,13.30
2016,07,24,04,08,13.30
2016,07,24,04,09,13.30
2016,07,24,04,10,13.30
2016,07,24,04,11,13.30
2016,07,24,04,12,13.30
2016,07,24,04,13,13.30
2016,07,24,04,14,13.30
2016,07,24,04,15,13.30
2016,07,24,04,16,13.30
2016,07,24,04,17,13.30
2016,07,24,04,18,13.30
2016,07,24,04,19,13.30
2016,07,24,04,20,13.30
2016,07,24,04,21,13.30
2016,07,24,04,22,13.30
2016,07,24,04,23,13.30
2016,07,24,04,24,13.30
2016,07,24,04,25,13.30
2016,07,24,04,26,13.30
2016,07,24,04,27,13.30
2016,07,24,04,28,13.30
2016,07,24,04,29,13.30
2016,07,24,04,30,13.30
2016,07,24,04,31,13.30
2016,07,24,04,32,13.20
2016,07,24,04,33,13.20
2016,07,24,04,34,13.20
2016,07,24,04,35,13.20
2016,07,24,04,36,13.20
2016,07,24,04,37,13.20
2016,07,24,04,38,13.20
2016,07,24,04,39,13.20
2016,07,24,04,40,13.20
2016,07,24,04,41,13.20
2016,07,24,04,42,13.10
2016,07,24,04,43,13.10
2016,07,24,04,44,13.10
2016,07,24,04,45,13.10
2016,07,24,04,46,13.10
2016,07,24,04,47,13.10
2016,07,24,04,48,13.10
2016,07,24,04,49,13.00
2016,07,24,04,50,13.00
2016,07,24,04,51,13.00
2016,07,24,04,52,12.90
2016,07,24,04,53,12.90
2016,07,24,04,54,12.90
2016,07,24,04,55,12.90
2016,07,24,04,56,12.90
2016,07,24,04,57,12.90
2016,07,24,04,58,12.90
2016,07,24,04,59,12.90
2016,07,24,05,00,12.80
2016,07,24,05,01,12.80
2016,07,24,05,02,12.80
2016,07,24,05,03,12.80
2016,07,24,05,04,12.80
2016,07,24,05,05,12.80
2016,07,24,05,06,12.80
2016,07,24,05,07,12.80
2016,07,24,05,08,12.80
2016,07,24,05,09,12.70
2016,07,24,05,10,12.70
2016,07,24,05,11,12.70
2016,07,24,05,12,12.70
2016,07,24,05,13,12.70
2016,07,24,05,14,12.70
2016,07,24,05,15,12.70
2016,07,24,05,16,12.70
2016,07,24,05,17,12.70
2016,07,24,05,18,12.70
2016,07,24,05,19,12.70
2016,07,24,05,20,12.70
2016,07,24,05,21,12.70
2016,07,24,05,22,12.70
2016,07,24,05,23,12.70
2016,07,24,05,24,12.70
2016,07,24,05,25,12.70
2016,07,24,05,26,12.70
2016,07,24,05,27,12.70
2016,07,24,05,28,12.70
2016,07,24,05,29,12.70
2016,07,24,05,30,12.60
2016,07,24,05,31,12.60
2016,07,24,05,32,12.60
2016,07,24,05,33,12.60
2016,07,24,05,34,12.60
2016,07,24,05,35,12.60
2016,07,24,05,36,12.60
2016,07,24,05,37,12.60
2016,07,24,05,38,12.60
2016,07,24,05,39,12.60
2016,07,24,05,40,12.60
2016,07,24,05,41,12.60
2016,07,24,05,42,12.60
2016,07,24,05,43,12.60
2016,07,24,05,44,12.60
2016,07,24,05,45,12.60
2016,07,24,05,46,12.50
2016,07,24,05,47,12.50
2016,07,24,05,48,12.50
2016,07,24,05,49,12.50
2016,07,24,05,50,12.50
2016,07,24,05,51,12.50
2016,07,24,05,52,12.50
2016,07,24,05,53,12.50
2016,07,24,05,54,12.40
2016,07,24,05,55,12.40
2016,07,24,05,56,12.40
2016,07,24,05,57,12.40
2016,07,24,05,58,12.40
2016,07,24,05,59,12.40
2016,07,24,06,00,12.40
2016,07,24,06,01,12.40
2016,07,24,06,02,12.40
2016,07,24,06,03,12.40
2016,07,24,06,04,12.40
2016,07,24,06,05,12.50
2016,07,24,06,06,12.50
2016,07,24,06,07,12.60
2016,07,24,06,08,12.60
2016,07,24,06,09,12.60
2016,07,24,06,10,12.60
2016,07,24,06,11,12.70
2016,07,24,06,12,12.70
2016,07,24,06,13,12.70
2016,07,24,06,14,12.80
2016,07,24,06,15,12.80
2016,07,24,06,16,12.80
2016,07,24,06,17,12.90
2016,07,24,06,18,12.90
2016,07,24,06,19,12.90
2016,07,24,06,20,13.00
2016,07,24,06,21,13.00
2016,07,24,06,22,13.10
2016,07,24,06,23,13.10
2016,07,24,06,24,13.10
2016,07,24,06,25,13.20
2016,07,24,06,26,13.20
2016,07,24,06,27,13.20
2016,07,24,06,28,13.30
2016,07,24,06,29,13.30
2016,07,24,06,30,13.30
2016,07,24,06,31,13.30
2016,07,24,06,32,13.30
2016,07,24,06,33,13.30
2016,07,24,06,34,13.30
2016,07,24,06,35,13.30
2016,07,24,06,36,13.30
2016,07,24,06,37,13.30
2016,07,24,06,38,13.30
2016,07,24,06,39,13.40
2016,07,24,06,40,13.40
2016,07,24,06,41,13.50
2016,07,24,06,42,13.50
2016,07,24,06,43,13.60
2016,07,24,06,44,13.60
2016,07,24,06,45,13.70
2016,07,24,06,46,13.80
2016,07,24,06,47,13.80
2016,07,24,06,48,13.90
2016,07,24,06,49,14.00
2016,07,24,06,50,14.00
2016,07,24,06,51,14.10
2016,07,24,06,52,14.20
2016,07,24,06,53,14.30
2016,07,24,06,54,14.30
2016,07,24,06,55,14.40
2016,07,24,06,56,14.40
2016,07,24,06,57,14.50
2016,07,24,06,58,14.50
2016,07,24,06,59,14.60
2016,07,24,07,00,14.60
2016,07,24,07,01,14.60
2016,07,24,07,02,14.60
2016,07,24,07,03,14.70
2016,07,24,07,04,14.70
2016,07,24,07,05,14.70
2016,07,24,07,06,14.70
2016,07,24,07,07,14.70
2016,07,24,07,08,14.70
2016,07,24,07,09,14.70
2016,07,24,07,10,14.80
2016,07,24,07,11,14.80
2016,07,24,07,12,14.80
2016,07,24,07,13,14.80
2016,07,24,07,14,14.90
2016,07,24,07,15,14.90
2016,07,24,07,16,15.00
2016,07,24,07,17,15.00
2016,07,24,07,18,15.00
2016,07,24,07,19,15.00
2016,07,24,07,20,15.00
2016,07,24,07,21,15.00
2016,07,24,07,22,15.00
2016,07,24,07,23,15.00
2016,07,24,07,24,15.00
2016,07,24,07,25,15.00
2016,07,24,07,26,15.00
2016,07,24,07,27,15.00
2016,07,24,07,28,15.00
2016,07,24,07,29,15.00
2016,07,24,07,30,15.10
2016,07,24,07,31,15.10
2016,07,24,07,32,15.20
2016,07,24,07,33,15.20
2016,07,24,07,34,15.30
2016,07,24,07,35,15.30
2016,07,24,07,36,15.30
2016,07,24,07,37,15.40
2016,07,24,07,38,15.40
2016,07,24,07,39,15.50
2016,07,24,07,40,15.50
2016,07,24,07,41,15.60
2016,07,24,07,42,15.60
2016,07,24,07,43,15.60
2016,07,24,07,44,15.70
2016,07,24,07,45,15.70
2016,07,24,07,46,15.80
2016,07,24,07,47,15.80
2016,07,24,07,48,15.90
2016,07,24,07,49,16.00
2016,07,24,07,50,16.00
2016,07,24,07,51,16.10
2016,07,24,07,52,16.20
2016,07,24,07,53,16.20
2016,07,24,07,54,16.30
2016,07,24,07,55,16.40
2016,07,24,07,56,16.40
2016,07,24,07,57,16.50
2016,07,24,07,58,16.60
2016,07,24,07,59,16.70
2016,07,24,08,00,16.80
2016,07,24,08,01,16.90
2016,07,24,08,02,17.00
2016,07,24,08,03,17.10
2016,07,24,08,04,17.20
2016,07,24,08,05,17.30
2016,07,24,08,06,17.50
2016,07,24,08,07,17.60
2016,07,24,08,08,17.70
2016,07,24,08,09,17.80
2016,07,24,08,10,17.90
2016,07,24,08,11,17.90
2016,07,24,08,12,17.90
2016,07,24,08,13,17.80
2016,07,24,08,14,17.70
2016,07,24,08,15,17.70
2016,07,24,08,16,17.60
2016,07,24,08,17,17.60
2016,07,24,08,18,17.60
2016,07,24,08,19,17.50
2016,07,24,08,20,17.40
2016,07,24,08,21,17.40
2016,07,24,08,22,17.40
2016,07,24,08,23,17.30
2016,07,24,08,24,17.20
2016,07,24,08,25,17.10
2016,07,24,08,26,17.10
2016,07,24,08,27,17.10
2016,07,24,08,28,17.20
2016,07,24,08,29,17.20
2016,07,24,08,30,17.20
2016,07,24,08,31,17.30
2016,07,24,08,32,17.30
2016,07,24,08,33,17.30
2016,07,24,08,34,17.30
2016,07,24,08,35,17.30
2016,07,24,08,36,17.20
2016,07,24,08,37,17.30
2016,07,24,08,38,17.30
2016,07,24,08,39,17.30
2016,07,24,08,40,17.30
2016,07,24,08,41,17.40
2016,07,24,08,42,17.40
2016,07,24,08,43,17.50
2016,07,24,08,44,17.60
2016,07,24,08,45,17.70
2016,07,24,08,46,17.70
2016,07,24,08,47,17.80
2016,07,24,08,48,17.90
2016,07,24,08,49,18.00
2016,07,24,08,50,18.10
2016,07,24,08,51,18.20
2016,07,24,08,52,18.30
2016,07,24,08,53,18.30
2016,07,24,08,54,18.30
2016,07,24,08,55,18.40
2016,07,24,08,56,18.40
2016,07,24,08,57,18.40
2016,07,24,08,58,18.50
2016,07,24,08,59,18.60
2016,07,24,09,00,18.60
2016,07,24,09,01,18.70
2016,07,24,09,02,18.80
2016,07,24,09,03,18.80
2016,07,24,09,04,18.80
2016,07,24,09,05,18.90
2016,07,24,09,06,18.90
2016,07,24,09,07,18.90
2016,07,24,09,08,19.00
2016,07,24,09,09,18.90
2016,07,24,09,10,19.00
2016,07,24,09,11,19.00
2016,07,24,09,12,18.90
2016,07,24,09,13,18.90
2016,07,24,09,14,18.80
2016,07,24,09,15,18.80
2016,07,24,09,16,18.80
2016,07,24,09,17,18.80
2016,07,24,09,18,18.80
2016,07,24,09,19,18.80
2016,07,24,09,20,18.70
2016,07,24,09,21,18.70
2016,07,24,09,22,18.70
2016,07,24,09,23,18.70
2016,07,24,09,24,18.80
2016,07,24,09,25,18.80
2016,07,24,09,26,18.80
2016,07,24,09,27,18.80
2016,07,24,09,28,18.80
2016,07,24,09,29,18.80
2016,07,24,09,30,18.70
2016,07,24,09,31,18.70
2016,07,24,09,32,18.70
2016,07,24,09,33,18.70
2016,07,24,09,34,18.80
2016,07,24,09,35,18.80
2016,07,24,09,36,18.80
2016,07,24,09,37,18.90
2016,07,24,09,38,18.90
2016,07,24,09,39,18.90
2016,07,24,09,40,18.90
2016,07,24,09,41,18.90
2016,07,24,09,42,18.90
2016,07,24,09,43,19.00
2016,07,24,09,44,19.10
2016,07,24,09,45,19.20
2016,07,24,09,46,19.20
2016,07,24,09,47,19.20
2016,07,24,09,48,19.20
2016,07,24,09,49,19.20
2016,07,24,09,50,19.10
2016,07,24,09,51,19.00
2016,07,24,09,52,19.00
2016,07,24,09,53,19.00
2016,07,24,09,54,18.90
2016,07,24,09,55,18.90
2016,07,24,09,56,18.90
2016,07,24,09,57,18.90
2016,07,24,09,58,18.90
2016,07,24,09,59,18.90
2016,07,24,10,00,18.90
2016,07,24,10,01,19.00
2016,07,24,10,02,19.10
2016,07,24,10,03,19.10
2016,07,24,10,04,19.10
2016,07,24,10,05,19.20
2016,07,24,10,06,19.30
2016,07,24,10,07,19.30
2016,07,24,10,08,19.30
2016,07,24,10,09,19.20
2016,07,24,10,10,19.20
2016,07,24,10,11,19.20
2016,07,24,10,12,19.10
2016,07,24,10,13,19.10
2016,07,24,10,14,19.00
2016,07,24,10,15,18.90
2016,07,24,10,16,18.90
2016,07,24,10,17,18.90
2016,07,24,10,18,18.90
2016,07,24,10,19,18.90
2016,07,24,10,20,18.90
2016,07,24,10,21,18.90
2016,07,24,10,22,18.90
2016,07,24,10,23,18.80
2016,07,24,10,24,18.70
2016,07,24,10,25,18.60
2016,07,24,10,26,18.60
2016,07,24,10,27,18.70
2016,07,24,10,28,18.70
2016,07,24,10,29,18.60
2016,07,24,10,30,18.70
2016,07,24,10,31,18.70
2016,07,24,10,32,18.70
2016,07,24,10,33,18.70
2016,07,24,10,34,18.70
2016,07,24,10,35,18.80
2016,07,24,10,36,18.90
2016,07,24,10,37,19.00
2016,07,24,10,38,19.10
2016,07,24,10,39,19.10
2016,07,24,10,40,19.10
2016,07,24,10,41,19.20
2016,07,24,10,42,19.20
2016,07,24,10,43,19.10
2016,07,24,10,44,19.20
2016,07,24,10,45,19.20
2016,07,24,10,46,19.30
2016,07,24,10,47,19.30
2016,07,24,10,48,19.40
2016,07,24,10,49,19.50
2016,07,24,10,50,19.60
2016,07,24,10,51,19.70
2016,07,24,10,52,19.70
2016,07,24,10,53,19.80
2016,07,24,10,54,19.90
2016,07,24,10,55,20.00
2016,07,24,10,56,20.10
2016,07,24,10,57,20.10
2016,07,24,10,58,20.00
2016,07,24,10,59,19.90
2016,07,24,11,00,19.90
2016,07,24,11,01,19.80
2016,07,24,11,02,19.80
2016,07,24,11,03,19.80
2016,07,24,11,04,19.90
2016,07,24,11,05,19.90
2016,07,24,11,06,19.90
2016,07,24,11,07,19.80
2016,07,24,11,08,19.70
2016,07,24,11,09,19.50
2016,07,24,11,10,19.50
2016,07,24,11,11,19.50
2016,07,24,11,12,19.60
2016,07,24,11,13,19.60
2016,07,24,11,14,19.70
2016,07,24,11,15,19.80
2016,07,24,11,16,19.80
2016,07,24,11,17,20.00
2016,07,24,11,18,20.10
2016,07,24,11,19,20.30
2016,07,24,11,20,20.40
2016,07,24,11,21,20.50
2016,07,24,11,22,20.60
2016,07,24,11,23,20.70
2016,07,24,11,24,20.80
2016,07,24,11,25,20.90
2016,07,24,11,26,20.90
2016,07,24,11,27,20.90
2016,07,24,11,28,20.90
2016,07,24,11,29,20.90
2016,07,24,11,30,20.90
2016,07,24,11,31,20.90
2016,07,24,11,32,21.00
2016,07,24,11,33,21.00
2016,07,24,11,34,21.10
2016,07,24,11,35,21.20
2016,07,24,11,36,21.30
2016,07,24,11,37,21.30
2016,07,24,11,38,21.40
2016,07,24,11,39,21.40
2016,07,24,11,40,21.50
2016,07,24,11,41,21.60
2016,07,24,11,42,21.60
2016,07,24,11,43,21.70
2016,07,24,11,44,21.80
2016,07,24,11,45,21.90
2016,07,24,11,46,22.00
2016,07,24,11,47,22.00
2016,07,24,11,48,22.00
2016,07,24,11,49,22.10
2016,07,24,11,50,22.20
2016,07,24,11,51,22.20
2016,07,24,11,52,22.20
2016,07,24,11,53,22.10
2016,07,24,11,54,22.00
2016,07,24,11,55,21.90
2016,07,24,11,56,21.80
2016,07,24,11,57,21.70
2016,07,24,11,58,21.60
2016,07,24,11,59,21.50
2016,07,24,12,00,21.40
2016,07,24,12,01,21.40
2016,07,24,12,02,21.50
2016,07,24,12,03,21.60
2016,07,24,12,04,21.70
2016,07,24,12,05,21.80
2016,07,24,12,06,21.80
2016,07,24,12,07,21.70
2016,07,24,12,08,21.80
2016,07,24,12,09,21.90
2016,07,24,12,10,21.90
2016,07,24,12,11,21.90
2016,07,24,12,12,22.00
2016,07,24,12,13,21.90
2016,07,24,12,14,21.70
2016,07,24,12,15,21.50
2016,07,24,12,16,21.40
2016,07,24,12,17,21.30
2016,07,24,12,18,21.30
2016,07,24,12,19,21.30
2016,07,24,12,20,21.30
2016,07,24,12,21,21.30
2016,07,24,12,22,21.20
2016,07,24,12,23,21.30
2016,07,24,12,24,21.40
2016,07,24,12,25,21.50
2016,07,24,12,26,21.60
2016,07,24,12,27,21.60
2016,07,24,12,28,21.60
2016,07,24,12,29,21.40
2016,07,24,12,30,21.20
2016,07,24,12,31,21.10
2016,07,24,12,32,21.10
2016,07,24,12,33,21.10
2016,07,24,12,34,21.10
2016,07,24,12,35,21.10
2016,07,24,12,36,21.10
2016,07,24,12,37,21.20
2016,07,24,12,38,21.30
2016,07,24,12,39,21.20
2016,07,24,12,40,21.30
2016,07,24,12,41,21.20
2016,07,24,12,42,21.20
2016,07,24,12,43,21.20
2016,07,24,12,44,21.20
2016,07,24,12,45,21.00
2016,07,24,12,46,21.00
2016,07,24,12,47,20.90
2016,07,24,12,48,20.90
2016,07,24,12,49,20.90
2016,07,24,12,50,21.00
2016,07,24,12,51,21.10
2016,07,24,12,52,21.10
2016,07,24,12,53,21.10
2016,07,24,12,54,21.10
2016,07,24,12,55,21.20
2016,07,24,12,56,21.20
2016,07,24,12,57,21.30
2016,07,24,12,58,21.30
2016,07,24,12,59,21.30
2016,07,24,13,00,21.30
2016,07,24,13,01,21.20
2016,07,24,13,02,21.30
2016,07,24,13,03,21.30
2016,07,24,13,04,21.40
2016,07,24,13,05,21.50
2016,07,24,13,06,21.60
2016,07,24,13,07,21.70
2016,07,24,13,08,21.70
2016,07,24,13,09,21.80
2016,07,24,13,10,21.90
2016,07,24,13,11,22.00
2016,07,24,13,12,22.10
2016,07,24,13,13,22.20
2016,07,24,13,14,22.30
2016,07,24,13,15,22.50
2016,07,24,13,16,22.50
2016,07,24,13,17,22.60
2016,07,24,13,18,22.60
2016,07,24,13,19,22.70
2016,07,24,13,20,22.80
2016,07,24,13,21,22.90
2016,07,24,13,22,23.00
2016,07,24,13,23,22.90
2016,07,24,13,24,22.90
2016,07,24,13,25,22.90
2016,07,24,13,26,22.90
2016,07,24,13,27,22.80
2016,07,24,13,28,22.70
2016,07,24,13,29,22.70
2016,07,24,13,30,22.70
2016,07,24,13,31,22.70
2016,07,24,13,32,22.70
2016,07,24,13,33,22.70
2016,07,24,13,34,22.80
2016,07,24,13,35,22.70
2016,07,24,13,36,22.60
2016,07,24,13,37,22.40
2016,07,24,13,38,22.40
2016,07,24,13,39,22.40
2016,07,24,13,40,22.30
2016,07,24,13,41,22.20
2016,07,24,13,42,22.10
2016,07,24,13,43,22.10
2016,07,24,13,44,22.10
2016,07,24,13,45,22.20
2016,07,24,13,46,22.20
2016,07,24,13,47,22.20
2016,07,24,13,48,22.30
2016,07,24,13,49,22.40
2016,07,24,13,50,22.50
2016,07,24,13,51,22.60
2016,07,24,13,52,22.60
2016,07,24,13,53,22.70
2016,07,24,13,54,22.70
2016,07,24,13,55,22.70
2016,07,24,13,56,22.60
2016,07,24,13,57,22.50
2016,07,24,13,58,22.40
2016,07,24,13,59,22.50
2016,07,24,14,00,22.50
2016,07,24,14,01,22.50
2016,07,24,14,02,22.50
2016,07,24,14,03,22.30
2016,07,24,14,04,22.20
2016,07,24,14,05,22.20
2016,07,24,14,06,22.00
2016,07,24,14,07,21.80
2016,07,24,14,08,21.80
2016,07,24,14,09,21.70
2016,07,24,14,10,21.80
2016,07,24,14,11,21.80
2016,07,24,14,12,21.80
2016,07,24,14,13,21.70
2016,07,24,14,14,21.70
2016,07,24,14,15,21.70
2016,07,24,14,16,21.70
2016,07,24,14,17,21.70
2016,07,24,14,18,21.70
2016,07,24,14,19,21.70
2016,07,24,14,20,21.70
2016,07,24,14,21,21.70
2016,07,24,14,22,21.70
2016,07,24,14,23,21.70
2016,07,24,14,24,21.70
2016,07,24,14,25,21.70
2016,07,24,14,26,21.80
2016,07,24,14,27,21.90
2016,07,24,14,28,22.00
2016,07,24,14,29,22.10
2016,07,24,14,30,22.20
2016,07,24,14,31,22.20
2016,07,24,14,32,22.30
2016,07,24,14,33,22.30
2016,07,24,14,34,22.40
2016,07,24,14,35,22.50
2016,07,24,14,36,22.60
2016,07,24,14,37,22.60
2016,07,24,14,38,22.70
2016,07,24,14,39,22.80
2016,07,24,14,40,22.80
2016,07,24,14,41,22.90
2016,07,24,14,42,22.90
2016,07,24,14,43,22.90
2016,07,24,14,44,23.00
2016,07,24,14,45,23.00
2016,07,24,14,46,23.10
2016,07,24,14,47,23.20
2016,07,24,14,48,23.20
2016,07,24,14,49,23.20
2016,07,24,14,50,23.20
2016,07,24,14,51,23.20
2016,07,24,14,52,23.20
2016,07,24,14,53,23.10
2016,07,24,14,54,23.10
2016,07,24,14,55,23.00
2016,07,24,14,56,23.00
2016,07,24,14,57,23.00
2016,07,24,14,58,23.10
2016,07,24,14,59,23.10
2016,07,24,15,00,23.20
2016,07,24,15,01,23.20
2016,07,24,15,02,23.20
2016,07,24,15,03,23.20
2016,07,24,15,04,23.00
2016,07,24,15,05,22.90
2016,07,24,15,06,22.80
2016,07,24,15,07,22.70
2016,07,24,15,08,22.70
2016,07,24,15,09,22.60
2016,07,24,15,10,22.60
2016,07,24,15,11,22.70
2016,07,24,15,12,22.70
2016,07,24,15,13,22.80
2016,07,24,15,14,22.80
2016,07,24,15,15,22.70
2016,07,24,15,16,22.70
2016,07,24,15,17,22.70
2016,07,24,15,18,22.60
2016,07,24,15,19,22.70
2016,07,24,15,20,22.70
2016,07,24,15,21,22.80
2016,07,24,15,22,22.80
2016,07,24,15,23,22.80
2016,07,24,15,24,22.80
2016,07,24,15,25,22.90
2016,07,24,15,26,22.90
2016,07,24,15,27,23.00
2016,07,24,15,28,23.00
2016,07,24,15,29,23.10
2016,07,24,15,30,23.20
2016,07,24,15,31,23.20
2016,07,24,15,32,23.30
2016,07,24,15,33,23.40
2016,07,24,15,34,23.40
2016,07,24,15,35,23.40
2016,07,24,15,36,23.50
2016,07,24,15,37,23.50
2016,07,24,15,38,23.50
2016,07,24,15,39,23.50
2016,07,24,15,40,23.40
2016,07,24,15,41,23.50
2016,07,24,15,42,23.50
2016,07,24,15,43,23.60
2016,07,24,15,44,23.50
2016,07,24,15,45,23.50
2016,07,24,15,46,23.40
2016,07,24,15,47,23.50
2016,07,24,15,48,23.60
2016,07,24,15,49,23.70
2016,07,24,15,50,23.70
2016,07,24,15,51,23.70
2016,07,24,15,52,23.70
2016,07,24,15,53,23.70
2016,07,24,15,54,23.70
2016,07,24,15,55,23.60
2016,07,24,15,56,23.50
2016,07,24,15,57,23.50
2016,07,24,15,58,23.40
2016,07,24,15,59,23.50
2016,07,24,16,00,23.50
2016,07,24,16,01,23.60
2016,07,24,16,02,23.60
2016,07,24,16,03,23.50
2016,07,24,16,04,23.40
2016,07,24,16,05,23.30
2016,07,24,16,06,23.20
2016,07,24,16,07,23.20
2016,07,24,16,08,23.20
2016,07,24,16,09,23.30
2016,07,24,16,10,23.30
2016,07,24,16,11,23.30
2016,07,24,16,12,23.30
2016,07,24,16,13,23.40
2016,07,24,16,14,23.40
2016,07,24,16,15,23.50
2016,07,24,16,16,23.50
2016,07,24,16,17,23.50
2016,07,24,16,18,23.60
2016,07,24,16,19,23.70
2016,07,24,16,20,23.80
2016,07,24,16,21,23.80
2016,07,24,16,22,23.80
2016,07,24,16,23,23.90
2016,07,24,16,24,23.90
2016,07,24,16,25,24.00
2016,07,24,16,26,24.10
2016,07,24,16,27,24.20
2016,07,24,16,28,24.30
2016,07,24,16,29,24.40
2016,07,24,16,30,24.40
2016,07,24,16,31,24.40
2016,07,24,16,32,24.30
2016,07,24,16,33,24.20
2016,07,24,16,34,24.10
2016,07,24,16,35,24.10
2016,07,24,16,36,24.00
2016,07,24,16,37,24.00
2016,07,24,16,38,23.80
2016,07,24,16,39,23.70
2016,07,24,16,40,23.70
2016,07,24,16,41,23.70
2016,07,24,16,42,23.70
2016,07,24,16,43,23.70
2016,07,24,16,44,23.70
2016,07,24,16,45,23.60
2016,07,24,16,46,23.50
2016,07,24,16,47,23.40
2016,07,24,16,48,23.30
2016,07,24,16,49,23.30
2016,07,24,16,50,23.30
2016,07,24,16,51,23.40
2016,07,24,16,52,23.40
2016,07,24,16,53,23.40
2016,07,24,16,54,23.40
2016,07,24,16,55,23.40
2016,07,24,16,56,23.40
2016,07,24,16,57,23.40
2016,07,24,16,58,23.40
2016,07,24,16,59,23.40
2016,07,24,17,00,23.40
2016,07,24,17,01,23.40
2016,07,24,17,02,23.40
2016,07,24,17,03,23.40
2016,07,24,17,04,23.40
2016,07,24,17,05,23.50
2016,07,24,17,06,23.50
2016,07,24,17,07,23.50
2016,07,24,17,08,23.50
2016,07,24,17,09,23.40
2016,07,24,17,10,23.30
2016,07,24,17,11,23.30
2016,07,24,17,12,23.20
2016,07,24,17,13,23.20
2016,07,24,17,14,23.20
2016,07,24,17,15,23.20
2016,07,24,17,16,23.20
2016,07,24,17,17,23.20
2016,07,24,17,18,23.20
2016,07,24,17,19,23.30